| time (UTC) | temp C | wind direction | speed KPH | gust KPH | rain 1hr cm | rain 24hr cm | rain mn cm | humidity % | barometer mb |
| 20260503223658 | 20 | 160 | 3.2 | 4.8 | 0.00 | 0.00 | 0.00 | 58 | 1018.1 |
| 20260503223155 | 20 | 31 | 0.0 | 3.2 | 0.00 | 0.00 | 0.00 | 58 | 1018.0 |
| 20260503222652 | 20 | 127 | 6.4 | 6.4 | 0.00 | 0.00 | 0.00 | 57 | 1017.9 |
| 20260503222149 | 20 | 178 | 0.0 | 6.4 | 0.00 | 0.00 | 0.00 | 57 | 1018.0 |
| 20260503221648 | 20 | 216 | 1.6 | 6.4 | 0.00 | 0.00 | 0.00 | 56 | 1017.9 |
| 20260503221145 | 20 | 125 | 0.0 | 3.2 | 0.00 | 0.00 | 0.00 | 56 | 1017.8 |
| 20260503220641 | 20 | 162 | 3.2 | 6.4 | 0.00 | 0.00 | 0.00 | 55 | 1017.7 |
| 20260503220138 | 21 | 347 | 3.2 | 8.0 | 0.00 | 0.00 | 0.00 | 55 | 1017.7 |
| 20260503215635 | 21 | 105 | 0.0 | 4.8 | 0.00 | 0.00 | 0.00 | 55 | 1017.7 |
| 20260503215131 | 21 | 127 | 0.0 | 3.2 | 0.00 | 0.00 | 0.00 | 54 | 1017.8 |
| 20260503214630 | 21 | 238 | 3.2 | 3.2 | 0.00 | 0.00 | 0.00 | 52 | 1017.6 |
| 20260503214126 | 21 | 187 | 0.0 | 4.8 | 0.00 | 0.00 | 0.00 | 52 | 1017.7 |
| 20260503213625 | 21 | 28 | 1.6 | 3.2 | 0.00 | 0.00 | 0.00 | 53 | 1017.7 |
| 20260503213121 | 21 | 72 | 3.2 | 4.8 | 0.00 | 0.00 | 0.00 | 53 | 1017.8 |
| 20260503212619 | 21 | 304 | 3.2 | 6.4 | 0.00 | 0.00 | 0.00 | 53 | 1017.6 |
| 20260503212116 | 21 | 324 | 1.6 | 6.4 | 0.00 | 0.00 | 0.00 | 53 | 1017.9 |
| 20260503211614 | 21 | 97 | 4.8 | 11.3 | 0.00 | 0.00 | 0.00 | 52 | 1017.6 |
| 20260503211109 | 22 | 243 | 3.2 | 6.4 | 0.00 | 0.00 | 0.00 | 47 | 1017.7 |
| 20260503210606 | 22 | 200 | 1.6 | 4.8 | 0.00 | 0.00 | 0.00 | 41 | 1017.6 |
| 20260503205558 | 22 | 267 | 3.2 | 4.8 | 0.00 | 0.00 | 0.00 | 43 | 1017.9 |
| 20260503205055 | 22 | 140 | 1.6 | 6.4 | 0.00 | 0.00 | 0.00 | 43 | 1017.8 |
| 20260503204552 | 23 | 140 | 4.8 | 4.8 | 0.00 | 0.00 | 0.00 | 43 | 1017.9 |
| 20260503204049 | 22 | 323 | 3.2 | 4.8 | 0.00 | 0.00 | 0.00 | 43 | 1017.9 |
| 20260503203546 | 21 | 29 | 3.2 | 4.8 | 0.00 | 0.00 | 0.00 | 43 | 1018.1 |
| 20260503203043 | 21 | 153 | 1.6 | 4.8 | 0.00 | 0.00 | 0.00 | 43 | 1018.0 |
| 20260503202541 | 21 | 238 | 3.2 | 6.4 | 0.00 | 0.00 | 0.00 | 43 | 1018.1 |
| 20260503202039 | 22 | 136 | 3.2 | 6.4 | 0.00 | 0.00 | 0.00 | 43 | 1018.3 |
| 20260503201537 | 22 | 162 | 1.6 | 6.4 | 0.00 | 0.00 | 0.00 | 41 | 1018.0 |
| 20260503201034 | 23 | 309 | 6.4 | 8.0 | 0.00 | 0.00 | 0.00 | 39 | 1018.3 |
| 20260503200530 | 23 | 219 | 3.2 | 4.8 | 0.00 | 0.00 | 0.00 | 40 | 1018.4 |
| 20260503200027 | 22 | 199 | 4.8 | 4.8 | 0.00 | 0.00 | 0.00 | 40 | 1018.6 |
| 20260503195524 | 22 | 132 | 0.0 | 8.0 | 0.00 | 0.00 | 0.00 | 43 | 1018.6 |
| 20260503195021 | 22 | 282 | 6.4 | 11.3 | 0.00 | 0.00 | 0.00 | 41 | 1018.7 |
| 20260503194518 | 22 | 251 | 6.4 | 9.7 | 0.00 | 0.00 | 0.00 | 40 | 1018.6 |
| 20260503194017 | 22 | 279 | 3.2 | 9.7 | 0.00 | 0.00 | 0.00 | 40 | 1018.7 |
| 20260503193514 | 22 | 294 | 8.0 | 16.1 | 0.00 | 0.00 | 0.00 | 41 | 1018.9 |
| 20260503193009 | 22 | 301 | 0.0 | 4.8 | 0.00 | 0.00 | 0.00 | 41 | 1018.9 |
| 20260503192506 | 22 | 237 | 4.8 | 9.7 | 0.00 | 0.00 | 0.00 | 40 | 1019.0 |
| 20260503192001 | 22 | 314 | 3.2 | 9.7 | 0.00 | 0.00 | 0.00 | 41 | 1019.1 |
| 20260503191459 | 22 | 231 | 3.2 | 6.4 | 0.00 | 0.00 | 0.00 | 42 | 1019.3 |
| 20260503190955 | 21 | 339 | 3.2 | 8.0 | 0.00 | 0.00 | 0.00 | 43 | 1019.3 |
| 20260503190453 | 21 | 297 | 4.8 | 4.8 | 0.00 | 0.00 | 0.00 | 48 | 1019.4 |
| 20260503185950 | 21 | 315 | 6.4 | 9.7 | 0.00 | 0.00 | 0.00 | 43 | 1019.6 |
| 20260503185446 | 22 | 231 | 3.2 | 4.8 | 0.00 | 0.00 | 0.00 | 42 | 1019.6 |
| 20260503184945 | 21 | 115 | 4.8 | 8.0 | 0.00 | 0.00 | 0.00 | 44 | 1019.6 |
| 20260503184442 | 21 | 143 | 3.2 | 9.7 | 0.00 | 0.00 | 0.00 | 42 | 1019.7 |
| 20260503183938 | 21 | 148 | 0.0 | 8.0 | 0.00 | 0.00 | 0.00 | 45 | 1019.9 |
| 20260503183435 | 21 | 242 | 4.8 | 9.7 | 0.00 | 0.00 | 0.00 | 42 | 1019.9 |
| 20260503182932 | 21 | 303 | 3.2 | 4.8 | 0.00 | 0.00 | 0.00 | 47 | 1019.8 |
| 20260503182431 | 21 | 273 | 3.2 | 4.8 | 0.00 | 0.00 | 0.00 | 47 | 1020.1 |
| 20260503181928 | 21 | 263 | 3.2 | 4.8 | 0.00 | 0.00 | 0.00 | 46 | 1020.3 |
| 20260503181425 | 21 | 347 | 3.2 | 3.2 | 0.00 | 0.00 | 0.00 | 44 | 1020.2 |
| 20260503180921 | 21 | 181 | 1.6 | 8.0 | 0.00 | 0.00 | 0.00 | 43 | 1020.2 |
| 20260503180420 | 21 | 312 | 1.6 | 9.7 | 0.00 | 0.00 | 0.00 | 42 | 1020.0 |
| 20260503175916 | 21 | 226 | 6.4 | 8.0 | 0.00 | 0.00 | 0.00 | 49 | 1020.4 |
| 20260503175415 | 20 | 226 | 8.0 | 12.9 | 0.00 | 0.00 | 0.00 | 45 | 1020.4 |
| 20260503174910 | 21 | 278 | 6.4 | 6.4 | 0.00 | 0.00 | 0.00 | 47 | 1020.2 |
| 20260503174409 | 21 | 261 | 3.2 | 8.0 | 0.00 | 0.00 | 0.00 | 45 | 1020.1 |
| 20260503173908 | 21 | 261 | 8.0 | 8.0 | 0.00 | 0.00 | 0.00 | 43 | 1020.1 |
| 20260503173405 | 21 | 184 | 3.2 | 9.7 | 0.00 | 0.00 | 0.00 | 41 | 1020.2 |
| 20260503172902 | 22 | 27 | 3.2 | 4.8 | 0.00 | 0.00 | 0.00 | 45 | 1020.3 |
| 20260503172359 | 20 | 180 | 0.0 | 4.8 | 0.00 | 0.00 | 0.00 | 48 | 1020.3 |
| 20260503171855 | 20 | 222 | 6.4 | 6.4 | 0.00 | 0.00 | 0.00 | 45 | 1020.5 |
| 20260503171352 | 20 | 163 | 1.6 | 4.8 | 0.00 | 0.00 | 0.00 | 46 | 1020.6 |
| 20260503170850 | 21 | 103 | 1.6 | 8.0 | 0.00 | 0.00 | 0.00 | 44 | 1020.5 |
| 20260503170346 | 21 | 0 | 3.2 | 6.4 | 0.00 | 0.00 | 0.00 | 48 | 1020.6 |
| 20260503150738 | 19 | 285 | 3.2 | 6.4 | 0.00 | 0.00 | 0.00 | 58 | 1021.1 |
| 20260503150234 | 18 | 106 | 0.0 | 4.8 | 0.00 | 0.00 | 0.00 | 58 | 1021.1 |
| 20260503140159 | 17 | 89 | 0.0 | 4.8 | 0.00 | 0.00 | 0.00 | 69 | 1020.7 |
| 20260503131128 | 13 | 355 | 3.2 | 3.2 | 0.00 | 0.00 | 0.00 | 99 | 1020.7 |
| 20260503130626 | 12 | 50 | 0.0 | 3.2 | 0.00 | 0.00 | 0.00 | 99 | 1020.6 |
| 20260503130123 | 12 | 268 | 1.6 | 3.2 | 0.00 | 0.00 | 0.00 | 99 | 1020.8 |
| 20260503110516 | 7 | 294 | 0.0 | 0.0 | 0.00 | 0.00 | 0.00 | 99 | 1019.7 |
| 20260503090408 | 7 | 315 | 0.0 | 0.0 | 0.00 | 0.00 | 0.00 | 99 | 1018.2 |
| 20260503081335 | 8 | 306 | 0.0 | 0.0 | 0.00 | 0.00 | 0.00 | 98 | 1018.0 |
| 20260503080831 | 8 | 306 | 0.0 | 0.0 | 0.00 | 0.00 | 0.00 | 99 | 1017.9 |
| 20260503080328 | 8 | 315 | 0.0 | 0.0 | 0.00 | 0.00 | 0.00 | 99 | 1017.9 |
| 20260503072805 | 9 | 278 | 1.6 | 1.6 | 0.00 | 0.00 | 0.00 | 99 | 1017.5 |
| 20260503072305 | 9 | 281 | 1.6 | 1.6 | 0.00 | 0.00 | 0.00 | 99 | 1017.5 |
| 20260503071758 | 9 | 293 | 0.0 | 1.6 | 0.00 | 0.00 | 0.00 | 99 | 1017.5 |
| 20260503071255 | 9 | 304 | 0.0 | 1.6 | 0.00 | 0.00 | 0.00 | 99 | 1017.6 |
| 20260503070751 | 9 | 293 | 0.0 | 1.6 | 0.00 | 0.00 | 0.00 | 98 | 1017.5 |
| 20260503070250 | 9 | 286 | 0.0 | 1.6 | 0.00 | 0.00 | 0.00 | 98 | 1017.3 |
| 20260503060214 | 10 | 337 | 3.2 | 3.2 | 0.00 | 0.00 | 0.00 | 98 | 1017.4 |
| 20260503054701 | 10 | 309 | 0.0 | 1.6 | 0.00 | 0.00 | 0.00 | 98 | 1017.5 |
| 20260503054159 | 10 | 312 | 0.0 | 1.6 | 0.00 | 0.00 | 0.00 | 98 | 1017.3 |
| 20260503053656 | 10 | 293 | 0.0 | 0.0 | 0.00 | 0.00 | 0.00 | 98 | 1017.4 |
| 20260503053155 | 10 | 304 | 0.0 | 3.2 | 0.00 | 0.00 | 0.00 | 98 | 1017.2 |
| 20260503052651 | 10 | 326 | 0.0 | 0.0 | 0.00 | 0.00 | 0.00 | 98 | 1017.3 |
| 20260503052147 | 10 | 326 | 0.0 | 1.6 | 0.00 | 0.00 | 0.00 | 98 | 1017.4 |
| 20260503051642 | 10 | 272 | 0.0 | 1.6 | 0.00 | 0.00 | 0.00 | 98 | 1017.1 |
| 20260503051141 | 10 | 307 | 1.6 | 1.6 | 0.00 | 0.00 | 0.00 | 98 | 1017.1 |
| 20260503050637 | 10 | 305 | 0.0 | 1.6 | 0.00 | 0.00 | 0.00 | 98 | 1017.0 |
| 20260503050134 | 10 | 310 | 0.0 | 1.6 | 0.00 | 0.00 | 0.00 | 98 | 1017.1 |
| 20260503045631 | 10 | 269 | 0.0 | 1.6 | 0.00 | 0.00 | 0.00 | 98 | 1017.2 |
| 20260503045128 | 10 | 325 | 0.0 | 0.0 | 0.00 | 0.00 | 0.00 | 98 | 1016.8 |
| 20260503044625 | 10 | 269 | 0.0 | 0.0 | 0.00 | 0.00 | 0.00 | 98 | 1017.0 |
| 20260503044123 | 10 | 264 | 1.6 | 1.6 | 0.00 | 0.00 | 0.00 | 98 | 1017.0 |
| 20260503043619 | 10 | 269 | 0.0 | 0.0 | 0.00 | 0.00 | 0.00 | 98 | 1016.7 |
| 20260503043116 | 10 | 347 | 0.0 | 1.6 | 0.00 | 0.00 | 0.00 | 98 | 1016.6 |
| 20260503042612 | 11 | 303 | 1.6 | 1.6 | 0.00 | 0.00 | 0.00 | 98 | 1016.7 |
| 20260503042108 | 11 | 304 | 0.0 | 1.6 | 0.00 | 0.00 | 0.00 | 98 | 1016.7 |
| 20260503041605 | 11 | 315 | 0.0 | 1.6 | 0.00 | 0.00 | 0.00 | 98 | 1016.6 |
| 20260503041103 | 11 | 315 | 0.0 | 0.0 | 0.00 | 0.00 | 0.00 | 98 | 1016.4 |
| 20260503040600 | 11 | 293 | 0.0 | 1.6 | 0.00 | 0.00 | 0.00 | 98 | 1016.3 |
| 20260503040057 | 11 | 299 | 0.0 | 3.2 | 0.00 | 2.74 | 2.74 | 98 | 1016.5 |
| 20260503035554 | 11 | 320 | 0.0 | 1.6 | 0.00 | 2.74 | 2.74 | 98 | 1016.3 |
| 20260503035052 | 11 | 289 | 0.0 | 1.6 | 0.00 | 2.74 | 2.74 | 98 | 1016.3 |
| 20260503034549 | 11 | 293 | 1.6 | 3.2 | 0.00 | 2.74 | 2.74 | 98 | 1016.3 |
| 20260503034046 | 11 | 269 | 0.0 | 1.6 | 0.00 | 2.74 | 2.74 | 98 | 1016.2 |
| 20260503033543 | 11 | 295 | 0.0 | 1.6 | 0.00 | 2.74 | 2.74 | 97 | 1016.4 |
| 20260503033041 | 11 | 283 | 1.6 | 3.2 | 0.00 | 2.74 | 2.74 | 97 | 1016.2 |
| 20260503032539 | 11 | 321 | 0.0 | 0.0 | 0.00 | 2.74 | 2.74 | 97 | 1016.0 |
| 20260503032037 | 11 | 313 | 0.0 | 1.6 | 0.00 | 2.74 | 2.74 | 97 | 1015.9 |
| 20260503031534 | 11 | 269 | 0.0 | 1.6 | 0.00 | 2.74 | 2.74 | 97 | 1016.0 |
| 20260503031031 | 11 | 293 | 0.0 | 1.6 | 0.00 | 2.74 | 2.74 | 97 | 1015.9 |
| 20260503030527 | 11 | 315 | 0.0 | 1.6 | 0.00 | 2.74 | 2.74 | 97 | 1015.9 |
| 20260503030025 | 11 | 299 | 0.0 | 1.6 | 0.00 | 2.74 | 2.74 | 97 | 1015.8 |
| 20260503025521 | 11 | 246 | 0.0 | 1.6 | 0.00 | 2.74 | 2.74 | 97 | 1015.6 |
| 20260503025019 | 11 | 290 | 0.0 | 1.6 | 0.00 | 2.74 | 2.74 | 97 | 1015.5 |
| 20260503024515 | 11 | 283 | 0.0 | 1.6 | 0.00 | 2.74 | 2.74 | 97 | 1015.3 |
| 20260503024013 | 11 | 283 | 0.0 | 1.6 | 0.00 | 2.74 | 2.74 | 97 | 1015.2 |
| 20260503023509 | 11 | 255 | 0.0 | 1.6 | 0.00 | 2.74 | 2.74 | 97 | 1015.3 |
| 20260503023006 | 12 | 264 | 1.6 | 1.6 | 0.00 | 2.74 | 2.74 | 97 | 1015.2 |
| 20260503022502 | 12 | 291 | 1.6 | 3.2 | 0.00 | 2.74 | 2.74 | 97 | 1015.1 |
| 20260503021957 | 12 | 302 | 0.0 | 3.2 | 0.00 | 2.74 | 2.74 | 97 | 1015.0 |
| 20260503021454 | 12 | 282 | 0.0 | 1.6 | 0.00 | 2.74 | 2.74 | 96 | 1015.1 |
| 20260503020951 | 12 | 309 | 0.0 | 1.6 | 0.00 | 2.74 | 2.74 | 96 | 1014.9 |
| 20260503020448 | 12 | 284 | 1.6 | 3.2 | 0.00 | 2.74 | 2.74 | 96 | 1015.0 |
| 20260503015945 | 12 | 312 | 1.6 | 3.2 | 0.00 | 2.74 | 2.74 | 96 | 1014.7 |
| 20260503015442 | 12 | 293 | 0.0 | 1.6 | 0.00 | 2.74 | 2.74 | 96 | 1014.6 |
| 20260503014938 | 12 | 287 | 0.0 | 1.6 | 0.00 | 2.74 | 2.74 | 96 | 1014.7 |
| 20260503014435 | 12 | 309 | 0.0 | 1.6 | 0.00 | 2.74 | 2.74 | 96 | 1014.5 |
| 20260503013933 | 12 | 246 | 0.0 | 1.6 | 0.00 | 2.74 | 2.74 | 96 | 1014.4 |
| 20260503013430 | 12 | 269 | 0.0 | 3.2 | 0.00 | 2.74 | 2.74 | 96 | 1014.4 |
| 20260503012927 | 12 | 304 | 0.0 | 3.2 | 0.00 | 2.74 | 2.74 | 96 | 1014.3 |
| 20260503012425 | 12 | 274 | 3.2 | 3.2 | 0.00 | 2.74 | 2.74 | 96 | 1014.3 |
| 20260503011921 | 12 | 295 | 0.0 | 3.2 | 0.00 | 2.74 | 2.74 | 96 | 1014.2 |
| 20260503011418 | 12 | 306 | 0.0 | 1.6 | 0.00 | 2.74 | 2.74 | 96 | 1014.3 |
| 20260503010915 | 12 | 284 | 1.6 | 3.2 | 0.00 | 2.74 | 2.74 | 96 | 1014.2 |
| 20260503010412 | 12 | 299 | 0.0 | 1.6 | 0.00 | 2.74 | 2.74 | 96 | 1014.2 |
| 20260503005909 | 12 | 293 | 0.0 | 1.6 | 0.00 | 2.74 | 2.74 | 96 | 1014.3 |
| 20260503005406 | 12 | 256 | 0.0 | 3.2 | 0.00 | 2.74 | 2.74 | 96 | 1014.2 |
| 20260503004902 | 12 | 339 | 0.0 | 1.6 | 0.00 | 2.74 | 2.74 | 96 | 1014.2 |
| 20260503004400 | 12 | 262 | 1.6 | 3.2 | 0.00 | 2.74 | 2.74 | 96 | 1014.1 |
| 20260503003857 | 12 | 316 | 0.0 | 6.4 | 0.00 | 2.74 | 2.74 | 96 | 1014.0 |
| 20260503003354 | 12 | 240 | 1.6 | 3.2 | 0.00 | 2.74 | 2.74 | 96 | 1013.9 |
| 20260503002850 | 12 | 259 | 3.2 | 4.8 | 0.00 | 2.74 | 2.74 | 96 | 1013.9 |
| 20260503002348 | 12 | 291 | 3.2 | 3.2 | 0.00 | 2.74 | 2.74 | 96 | 1013.8 |
| 20260503001844 | 12 | 202 | 0.0 | 3.2 | 0.00 | 2.74 | 2.74 | 96 | 1013.7 |
| 20260503001340 | 12 | 285 | 0.0 | 1.6 | 0.00 | 2.74 | 2.74 | 96 | 1013.5 |
| 20260503000838 | 12 | 252 | 1.6 | 3.2 | 0.00 | 2.74 | 2.74 | 96 | 1013.5 |
| 20260503000335 | 12 | 352 | 0.0 | 1.6 | 0.00 | 2.74 | 2.74 | 96 | 1013.4 |
| 20260502235832 | 12 | 294 | 1.6 | 3.2 | 0.00 | 2.74 | 2.74 | 96 | 1013.5 |
| 20260502235330 | 12 | 288 | 3.2 | 3.2 | 0.00 | 2.74 | 2.74 | 96 | 1013.4 |
| 20260502234826 | 12 | 338 | 1.6 | 3.2 | 0.00 | 2.74 | 2.74 | 96 | 1013.2 |
| 20260502234323 | 12 | 279 | 3.2 | 3.2 | 0.00 | 2.74 | 2.74 | 96 | 1013.3 |
| 20260502233820 | 12 | 296 | 1.6 | 3.2 | 0.00 | 2.74 | 2.74 | 96 | 1013.2 |
| 20260502233316 | 13 | 311 | 0.0 | 1.6 | 0.00 | 2.74 | 2.74 | 96 | 1013.3 |
| 20260502232813 | 12 | 152 | 1.6 | 3.2 | 0.00 | 2.74 | 2.74 | 96 | 1012.9 |
| 20260502232309 | 13 | 325 | 4.8 | 6.4 | 0.00 | 2.74 | 2.74 | 95 | 1012.9 |
| 20260502231806 | 13 | 137 | 1.6 | 4.8 | 0.00 | 2.74 | 2.74 | 95 | 1013.0 |
| 20260502231304 | 13 | 294 | 3.2 | 3.2 | 0.00 | 2.74 | 2.74 | 95 | 1012.9 |
| 20260502230802 | 13 | 328 | 1.6 | 3.2 | 0.00 | 2.74 | 2.74 | 95 | 1012.6 |
| 20260502230300 | 13 | 269 | 3.2 | 3.2 | 0.00 | 2.74 | 2.74 | 95 | 1012.8 |
| 20260502225756 | 13 | 325 | 1.6 | 4.8 | 0.00 | 2.74 | 2.74 | 95 | 1012.8 |
| 20260502225253 | 13 | 310 | 1.6 | 3.2 | 0.00 | 2.74 | 2.74 | 95 | 1012.7 |
| 20260502224749 | 13 | 298 | 1.6 | 3.2 | 0.00 | 2.74 | 2.74 | 95 | 1012.9 |
| 20260502224246 | 13 | 273 | 1.6 | 4.8 | 0.00 | 2.74 | 2.74 | 94 | 1012.9 |